Flag for Tunisia Weather past 2 weeks in Kairouan, Tunisia

Now
86 °F

Passing clouds.


Feels Like: 85 °F
Forecast: 72 / 90 °F
Wind: 12 mph from Northwest

Location: Kairouan Airport

Current Time: Sep 1, 2014 at 8:20:30 PM

Latest Report: Sep 1, 2014 at 8:00 PM


Visibility: N/A

Pressure: 29.83 "Hg

Humidity: 35%

Dew point: 55 °F

Location of KairouanLocation

Historic Weather in Kairouan — Graph

°F

Kairouan temperature yesterday

Maximum temperature yesterday: 100 °F (at 2:00 PM)
Minimum temperature yesterday: 75 °F (at 7:00 AM)
Average temperature yesterday: 88 °F

Past Weeks' High & Low Weather Summary

 TemperatureHumidityPressure
High108 °F (Aug 23, 3:00 PM)83% (Aug 30, 7:00 AM)30.09 "Hg (Aug 30, 7:00 AM)
Low73 °F (Aug 18, 7:00 AM)14% (Aug 28, 3:00 PM)29.80 "Hg (Aug 19, 5:00 PM)
Average91 °F41%29.95 "Hg
* Reported Aug 17 7:00 PM — Sep 1 7:00 PM, Kairouan, Weather by CustomWeather, © 2014

Note: Actual official high and low records may vary slightly from our data, if they occured in-between our weather recording intervals... More about our weather records

Advertising

Kairouan weather history for previous 24 hours

 ConditionsComfort  
Time TempWeatherWind HumidityBarometerVisibility
7:00 PM
Sep 1
88 °FPassing clouds.8 mph35%29.83 "HgN/A
6:00 PM91 °FPassing clouds.10 mph28%29.80 "HgN/A
5:00 PM95 °FPassing clouds.9 mph26%29.80 "HgN/A
4:00 PM97 °FPassing clouds.6 mph23%29.80 "HgN/A
3:00 PM97 °FPassing clouds.5 mph23%29.83 "HgN/A
2:00 PM95 °FPassing clouds.3 mph28%29.86 "HgN/A
1:00 PM93 °FPassing clouds.5 mph30%29.89 "HgN/A
12:00 PM91 °FPassing clouds.3 mph34%29.89 "HgN/A
11:00 AM88 °FSunny.3 mph43%29.92 "Hg10 mi
10:00 AM84 °FSunny.2 mph58%29.95 "Hg10 mi
9:00 AM82 °FSunny.2 mph62%29.95 "Hg10 mi
8:00 AM81 °FSunny.No wind66%29.92 "Hg10 mi
7:00 AM77 °FSunny.No wind74%29.92 "Hg10 mi
6:00 AM75 °FPassing clouds.No wind78%29.92 "HgN/A
5:00 AM75 °FPassing clouds.1 mph83%29.89 "Hg5 mi
4:00 AM75 °FPassing clouds.2 mph83%29.89 "Hg5 mi
3:00 AM75 °FPassing clouds.No wind83%29.89 "Hg5 mi
2:00 AM77 °FPassing clouds.2 mph74%29.92 "Hg5 mi
1:00 AM79 °FPassing clouds.2 mph70%29.92 "Hg5 mi
12:00 AM79 °FPassing clouds.No wind70%29.92 "Hg5 mi
11:00 PM
Aug 31
79 °FPassing clouds.1 mph70%29.92 "Hg5 mi
10:00 PM79 °FPassing clouds.3 mph70%29.92 "Hg5 mi
9:00 PM79 °FPassing clouds.3 mph70%29.92 "Hg5 mi
8:00 PM77 °FPassing clouds.5 mph74%29.92 "Hg5 mi
Weather by CustomWeather, © 2014

See weather overviewHow to use our weather pages